Location: *
(24.1434°N, 56.8729°E)
Time: 04:32:49
(UTC+00:00)

Centaur D-1AR AC-39 - Pass Details

Date: 09 April 2020
Orbit: 579 x 36202 km, 21.6° (Epoch: 05 June)

Event Time Altitude Azimuth Distance (km) Brightness Sun altitude
Rises 14:45:46 0° 278° (W) 7,474 10.3 -3.9°
Reaches altitude 10° 14:53:41 10° 265° (W) 4,014 7.2 -5.7°
Maximum altitude 14:59:22 20° 218° (SW) 1,885 4.4 -7.0°
Drops below altitude 10° 15:02:22 10° 166° (SSE) 2,001 3.9 -7.7°
Enters shadow 15:04:15 - 147° (SSE) 2,645 4.4 -8.1°
